EHI
0 0 0 0 0 0 0 0 0 0 0 0 0 0 0 0 0 0 0 0 0 0 0 1 3 4 4 4 5 6 6 5 4 3 3 3 3 2 1 0 0 0 0 0
0 0 0 0 0 0 0 0 0 0 0 0 0 0 0 0 0 0 0 0 0 0 1 2 3 4 3 4 5 5 4 4 3 3 3 4 4 3 2 1 0 0 0 0
0 0 0 0 0 0 0 0 0 0 0 0 0 0 1 1 0 0 0 0 0 0 1 3 4 4 3 3 4 3 2 2 3 4 4 5 6 5 3 1 0 0 0 0
0 0 0 0 0 0 0 0 0 0 0 1 2 3 3 3 2 2 1 1 1 0 1 2 4 5 4 3 3 1 0 1 3 4 4 5 5 5 3 1 0 0 0 0
0 0 0 0 0 0 0 0 0 0 1 2 4 5 6 6 5 5 4 2 1 0 0 0 2 5 5 3 2 1 0 0 2 3 3 3 2 3 2 1 0 0 0 0
0 0 0 0 0 0 1 0 0 0 1 2 3 5 6 6 6 5 4 2 1 0 0 0 1 3 4 2 1 0 0 1 2 2 1 1 1 1 1 0 0 0 0 0
0 0 0 0 0 0 0 0 0 0 0 1 3 4 5 5 4 2 1 0 0 0 0 0 0 1 1 1 0 0 0 1 2 1 0 0 1 0 0 0 0 0 0 0
0 0 0 0 0 0 0 0 0 0 1 2 4 5 4 2 1 0 0 0 0 0 0 0 0 0 0 0 0 0 0 1 1 0 0 0 0 0 0 0 0 0 0 0
0 0 0 0 0 0 0 0 0 1 2 4 4 3 2 0 0 0 0 0 0 0 0 0 0 0 0 0 0 0 0 0 0 0 0 0 0 0 0 0 0 0 0 0
0 0 0 0 0 0 0 0 0 1 2 3 2 1 0 0 0 0 0 0 0 0 0 0 0 0 0 0 0 0 0 0 0 0 0 0 0 0 0 0 0 0 0 0
0 0 0 0 0 0 0 0 0 0 1 1 1 0 0 0 0 0 0 0 0 0 0 0 0 0 0 0 0 0 0 0 0 0 0 0 0 0 0 0 0 0 0 0
0 0 0 0 0 0 0 0 0 0 0 0 0 0 0 0 0 0 0 0 0 0 0 0 0 0 0 0 0 0 0 0 0 0 0 0 0 0 0 0 0 0 0 0
0 0 0 0 0 0 0 0 0 0 0 0 0 0 0 0 0 0 0 0 0 0 0 0 0 0 0 0 0 0 0 0 0 0 0 0 0 0 0 0 0 0 0 0
0 0 0 0 0 0 0 0 0 0 0 0 0 0 0 0 0 0 0 0 0 0 0 0 0 0 0 0 0 0 0 0 0 0 0 0 0 0 0 0 0 0 0 0
0 0 0 0 0 0 0 0 0 0 0 0 0 0 0 0 0 0 0 0 0 0 0 0 0 0 0 0 0 0 0 0 0 0 0 0 0 0 0 0 0 0 0 0
0 0 0 0 0 0 0 0 0 0 0 0 0 0 0 0 0 0 0 0 0 0 0 0 0 0 0 0 0 0 0 0 0 0 0 0 0 0 0 0 0 0 0 0
0 0 0 0 0 0 0 0 0 0 0 0 0 0 0 0 0 0 0 0 0 0 0 0 0 0 0 0 0 0 0 0 0 0 0 0 0 0 0 0 0 0 0 0
0 0 0 0 0 0 0 0 0 0 0 0 0 0 0 0 0 0 0 0 0 0 0 0 0 0 0 0 0 0 0 0 0 0 0 0 0 0 0 0 0 0 0 0
0 0 0 0 0 0 0 0 0 0 0 0 0 0 0 0 0 0 0 0 0 0 0 0 0 0 0 0 0 0 0 0 0 0 0 0 0 0 0 0 0 0 0 0
0 0 0 0 0 0 0 0 0 0 0 0 0 0 0 0 0 0 0 0 0 0 0 0 0 0 0 0 0 0 0 0 0 0 0 0 0 0 0 0 0 0 0 0
0 0 0 0 0 0 0 0 0 0 0 0 0 0 0 0 0 0 0 0 0 0 0 0 0 0 0 0 0 0 0 0 0 0 0 0 0 0 0 0 0 0 0 0
0 0 0 0 0 0 0 0 0 0 0 0 0 0 0 0 0 0 0 0 0 0 0 0 0 0 0 0 0 0 0 0 0 0 0 0 0 0 0 0 0 0 0 0
0 0 0 0 0 0 0 0 0 0 0 0 0 0 0 0 0 0 0 0 0 0 0 0 0 0 0 0 0 0 0 0 0 0 0 0 0 0 0 0 0 0 0 0
0 0 0 0 0 0 0 0 0 0 0 0 0 0 0 0 0 0 0 0 0 0 0 0 0 0 0 0 0 0 0 0 0 0 0 0 0 0 0 0 0 0 0 0
0 0 0 0 0 0 0 0 0 0 0 0 0 0 0 0 0 0 0 0 0 0 0 0 0 0 0 0 0 0 0 0 0 0 0 0 0 0 0 0 0 0 0 0
0 0 0 0 0 0 0 0 0 0 0 0 0 0 0 0 0 0 0 0 0 0 0 0 0 0 0 0 0 0 0 0 0 0 0 0 0 0 0 0 0 0 0 0
0 0 0 0 0 0 0 0 0 0 0 0 0 0 0 0 0 0 0 0 0 0 0 0 0 0 0 0 0 0 0 0 0 0 0 0 0 0 0 0 0 0 0 0
Wind_Speed
5 4 3 5 5 7 7 8 9 9 8 9 6 5 4 3 3 4 5 6 7 7 6 6 6 5 5 6 6 7 7 8 8 7 7 6 6 6 6 6 7 7 7 7
3 4 4 5 7 8 8 6 6 5 8 6 3 0 1 3 4 4 5 6 7 6 6 7 7 7 6 6 6 6 7 7 6 5 6 6 6 5 5 5 5 6 7 7
3 3 1 6 8 8 6 6 8 9 8 2 0 0 0 2 3 4 4 5 6 6 6 6 6 6 6 5 5 6 6 6 6 6 6 6 6 5 6 6 5 5 6 6
2 1 6 8 3 3 5 5 5 4 3 3 3 2 3 3 4 3 3 4 4 4 4 4 4 4 5 5 5 5 5 5 5 6 6 5 5 6 5 4 5 5 6 6
2 3 6 5 2 1 2 4 3 4 3 4 6 5 5 5 5 4 4 3 3 3 4 4 4 4 6 5 5 4 4 4 4 5 6 6 6 6 5 5 5 5 4 5
3 3 6 5 3 2 2 4 2 3 5 5 4 3 1 3 5 5 5 5 5 5 6 6 4 5 7 6 5 3 3 3 3 4 5 5 5 5 4 4 5 4 4 4
3 4 6 3 5 1 4 5 2 1 3 4 2 4 5 5 6 6 7 7 7 7 7 5 4 6 7 6 4 3 3 3 3 3 3 3 3 2 3 3 3 3 2 2
3 3 6 4 3 1 3 2 1 1 3 6 8 9 8 7 7 8 8 9 8 8 8 6 6 8 8 6 4 4 5 5 4 3 2 2 2 1 1 2 2 2 2 1
4 5 3 2 3 4 2 1 0 3 6 10 11 9 9 8 8 9 9 9 7 9 9 8 7 8 8 4 5 6 6 6 5 5 4 3 3 2 1 1 1 1 1 1
2 3 3 3 3 3 2 2 3 6 8 9 11 10 10 9 9 9 9 8 8 10 10 8 7 8 6 6 6 7 7 6 5 5 5 4 3 2 2 1 1 1 1 1
2 3 4 4 4 3 5 6 7 9 9 10 12 12 10 9 9 8 8 8 8 9 9 8 7 8 7 6 6 7 6 6 5 4 4 3 3 2 2 1 1 2 1 1
2 2 0 2 3 4 6 8 9 11 12 11 12 12 11 10 9 8 8 8 9 9 9 8 7 7 6 5 6 7 6 5 4 3 3 2 2 3 5 3 3 2 1 1
1 1 2 3 4 5 8 9 11 12 13 13 11 11 11 10 8 8 8 8 8 8 7 7 7 8 6 6 7 7 5 4 3 3 3 2 2 2 2 4 5 4 2 2
2 3 4 4 5 7 10 11 12 13 12 12 10 11 11 10 9 8 7 6 7 8 8 7 8 8 6 6 7 6 5 5 4 3 2 2 2 2 1 1 2 3 2 2
5 4 5 6 8 8 9 11 13 12 11 11 9 10 10 10 8 7 6 6 8 9 8 8 8 7 5 5 6 5 4 4 3 3 3 2 2 2 1 1 1 2 3 3
6 7 8 9 9 9 10 11 12 10 9 10 9 9 8 8 8 7 6 6 8 7 6 6 6 5 4 5 5 4 4 5 4 3 3 3 2 2 2 2 2 3 3 3
7 6 7 9 9 10 10 9 9 8 8 8 8 7 8 8 8 8 7 6 7 6 5 5 4 4 5 5 4 3 3 4 5 3 3 2 2 2 2 2 2 3 4 4
6 6 7 8 9 9 9 9 8 8 7 7 7 8 8 7 7 5 5 5 7 7 6 5 4 4 5 5 4 3 3 3 3 2 2 2 2 2 2 2 3 4 4 4
9 9 10 9 8 9 8 8 7 7 6 7 8 7 6 6 5 5 5 6 6 5 4 4 5 5 5 5 5 3 3 3 3 2 2 2 2 2 2 3 3 4 4 4
10 9 10 9 9 9 8 7 8 7 6 7 8 7 7 5 5 5 6 5 3 1 2 3 4 4 4 4 5 3 3 3 3 3 3 3 3 3 3 3 4 4 4 4
10 10 10 10 9 8 8 7 8 7 6 6 7 6 6 5 4 4 4 3 3 3 3 4 3 3 3 3 4 3 3 3 3 3 3 3 3 3 4 4 4 4 4 4
8 8 8 8 9 8 6 6 7 7 7 6 6 6 6 5 5 4 4 2 2 3 3 3 3 4 5 4 3 3 3 3 3 3 3 3 3 4 4 4 5 5 5 5
7 7 7 7 7 7 7 6 6 6 6 5 5 5 4 3 2 2 2 2 3 4 4 4 5 6 7 4 4 4 4 4 4 3 3 3 4 4 4 5 5 5 5 5
6 6 6 6 7 8 7 6 6 5 6 5 4 4 4 3 3 2 2 3 5 5 4 5 7 7 6 4 4 4 4 4 3 3 3 3 4 4 4 5 5 5 5 6
7 7 7 7 7 6 5 5 6 6 6 6 6 6 5 3 3 2 3 4 6 5 4 6 7 7 5 4 4 3 3 3 4 3 3 4 4 4 5 5 5 5 5 5
6 6 5 5 4 4 3 4 4 4 4 5 4 4 4 4 4 4 4 5 6 6 5 4 4 5 4 4 4 4 3 4 4 3 4 4 4 5 5 5 7 5 5 5
6 5 5 5 4 4 4 4 4 3 3 3 3 3 3 4 4 4 5 4 4 4 4 4 4 4 4 3 4 3 3 3 3 4 4 4 4 4 5 6 5 5 5 6
Wind_Direction
233 244 218 224 229 194 194 191 192 225 227 249 248 240 233 200 167 153 163 170 175 177 176 170 167 171 176 178 174 169 170 181 193 188 183 182 184 188 186 187 195 196 196 200
266 257 229 247 249 224 215 208 216 232 252 243 252 206 140 157 155 166 178 180 175 172 171 175 178 179 179 180 177 168 175 188 186 173 174 181 185 183 183 187 188 188 196 198
250 270 313 255 233 217 210 206 190 213 231 195 183 48 152 159 154 167 173 170 171 173 175 180 181 177 175 176 162 165 178 182 175 173 181 188 183 176 184 188 185 187 195 198
215 168 228 243 245 200 205 227 209 213 210 169 159 95 54 93 133 135 134 143 154 159 162 162 160 161 156 147 148 161 170 177 177 178 184 181 178 186 190 183 186 196 202 204
167 213 264 285 295 129 185 254 208 182 167 141 129 89 51 54 89 110 111 112 112 117 123 123 130 141 132 129 136 145 158 168 173 174 176 178 188 194 189 185 193 199 202 203
177 200 234 251 292 307 122 264 267 169 170 160 130 112 115 64 79 84 79 82 86 86 86 93 102 117 120 123 124 139 159 161 154 156 165 179 190 191 186 187 201 206 212 210
202 230 260 285 306 326 182 239 291 195 179 155 130 139 125 103 90 88 83 81 83 82 80 79 96 110 111 109 118 131 117 109 113 130 150 166 175 179 178 179 183 191 206 216
180 218 256 335 344 230 240 285 316 101 123 116 111 110 108 102 92 85 79 76 83 85 76 67 82 98 96 92 91 89 91 89 83 77 81 98 100 106 134 161 178 182 187 215
198 225 267 312 284 289 276 233 84 107 115 121 117 113 104 94 85 79 76 74 77 85 78 64 66 87 95 85 81 84 84 80 74 67 57 56 70 71 68 103 145 164 170 195
264 283 313 332 329 345 29 73 94 107 115 118 116 110 102 95 86 78 71 71 76 80 77 65 57 66 75 72 76 80 77 70 68 71 62 53 55 68 84 93 116 132 152 190
259 290 337 358 11 41 68 85 95 95 101 108 109 104 100 94 87 83 78 72 74 79 78 69 62 60 58 68 81 82 76 70 63 58 60 54 49 49 65 64 172 169 191 201
226 261 226 321 360 66 88 91 97 100 97 94 99 101 97 90 84 81 78 76 76 75 75 69 67 61 51 59 77 82 72 61 59 58 53 56 58 46 44 51 50 75 119 150
180 67 98 72 50 70 92 93 94 96 99 96 93 99 98 92 85 83 80 78 78 76 72 69 65 56 42 51 69 74 74 66 59 57 54 47 46 54 36 22 34 46 54 64
81 90 79 65 71 77 90 94 92 89 89 94 98 97 96 92 87 84 80 79 80 77 69 65 62 49 35 50 65 66 63 58 58 50 45 44 44 42 44 22 349 340 343 336
58 88 107 98 90 87 91 96 94 91 92 90 90 93 97 97 91 83 77 78 77 71 63 62 59 40 28 49 60 59 56 48 49 47 45 45 41 38 27 7 332 316 325 329
88 88 96 96 93 94 95 95 97 95 95 94 91 90 92 93 88 78 67 69 75 69 58 59 52 27 29 49 55 51 47 47 52 48 41 39 35 28 12 357 340 326 318 316
108 105 106 100 96 94 92 96 100 102 100 98 98 97 94 87 79 71 64 64 73 68 56 54 39 25 37 48 55 48 38 31 34 35 27 19 14 5 350 340 328 318 310 305
97 103 104 107 106 99 93 94 97 99 101 104 100 91 86 86 87 80 70 69 68 55 38 33 37 41 40 41 48 47 42 30 24 21 12 9 1 348 339 329 322 318 316 322
91 93 93 93 97 100 98 96 95 93 92 95 91 86 83 83 85 83 75 70 65 51 12 9 34 44 35 26 36 41 37 27 19 9 360 350 346 343 337 332 328 326 324 324
87 92 94 90 88 93 95 95 93 87 85 94 93 88 80 74 76 79 76 67 44 357 339 21 38 36 24 17 28 33 29 22 15 7 4 359 352 348 345 342 339 337 334 329
89 90 91 90 85 83 88 95 94 89 82 88 94 95 90 77 73 78 76 55 1 9 30 37 38 27 21 23 30 33 28 22 16 10 5 357 349 346 345 344 339 334 330 327
86 87 89 91 90 81 73 81 88 88 83 81 84 89 86 75 67 63 59 49 356 18 34 31 27 26 25 29 30 28 25 24 20 16 10 1 353 345 341 338 333 328 325 324
87 88 89 93 95 90 77 71 77 85 87 88 91 93 93 89 80 82 45 3 20 35 40 33 27 30 33 35 30 28 24 22 18 13 7 359 351 343 337 335 331 328 327 328
83 82 83 87 90 87 78 66 67 73 76 74 69 77 91 86 58 43 53 38 42 47 48 36 34 32 31 32 31 31 25 17 8 360 354 348 343 341 337 334 331 331 330 330
88 86 87 89 89 90 92 86 77 70 72 65 55 50 52 63 72 54 49 47 43 45 41 33 36 34 32 28 26 23 16 8 359 351 350 347 343 339 335 332 332 331 331 331
84 82 78 80 89 94 89 84 79 72 75 70 54 43 45 49 58 57 53 48 43 41 37 28 24 27 27 24 18 13 8 2 358 354 350 346 343 341 337 338 338 336 333 333
79 78 77 69 58 65 77 81 81 71 70 81 70 43 44 50 54 52 49 45 40 36 31 25 21 18 15 13 9 5 4 3 360 356 352 349 347 343 339 338 336 333 333 332